Home   Weather   Coventry   Past weeks

Flag for United Kingdom Past Weather in Coventry, England, United Kingdom — Yesterday and Last 2 Weeks

Now
52 °F

Passing clouds.


Feels Like: 49 °F
Forecast: 47 / 52 °F
Wind: 8 mph from Southwest

Location: Coventry Airport

Current Time: Dec 10, 2016 at 12:41:03 pm

Latest Report: Dec 10, 2016 at 11:50 am


Visibility: N/A

Pressure: 30.12 "Hg

Humidity: 100%

Dew Point: 52 °F

Location of CoventryLocation

Past Weather in Coventry — Graph

°F

Coventry Temperature Yesterday

Maximum temperature yesterday: 57 °F (at 11:50 am)
Minimum temperature yesterday: 54 °F (at 7:50 am)
Average temperature yesterday: 56 °F

High & Low Weather Summary for the Past Weeks

 TemperatureHumidityPressure
High59 °F (Dec 8, 12:20 pm)100% (Nov 29, 7:20 am)30.57 "Hg (Nov 29, 7:20 am)
Low23 °F (Nov 30, 8:20 am)50% (Nov 28, 2:20 pm)30.15 "Hg (Nov 26, 1:20 pm)
Average44 °F87%30.30 "Hg
* Reported Nov 25 10:20 am — Dec 10 10:50 am, Coventry, Weather by CustomWeather, © 2016

Note: Actual official high and low records may vary slightly from our data, if they occured in-between our weather recording intervals... More about our weather records

Advertising

Coventry Weather History for the Previous 24 Hours

Scroll right to see more
 ConditionsComfort  
Time TempWeatherWind HumidityBarometerVisibility
10:50 am
Sat, Dec 10
52 °FFog.8 mph100%30.15 "Hg3 mi
10:20 am52 °FFog.8 mph100%30.15 "Hg2 mi
9:50 am52 °FFog.8 mph100%30.15 "Hg2 mi
9:20 am52 °FDrizzle. Fog.7 mph100%30.15 "Hg2 mi
8:50 am52 °FDrizzle. Fog.6 mph100%30.15 "Hg2 mi
8:20 am52 °FDrizzle. Fog.5 mph94%30.15 "Hg2 mi
5:50 pm
Fri, Dec 9
55 °FClear.10 mph82%30.15 "Hg10 mi
5:20 pm55 °FClear.10 mph82%30.15 "Hg10 mi
4:50 pm55 °FClear.12 mph88%30.15 "Hg10 mi
4:20 pm55 °FClear.10 mph88%30.15 "Hg10 mi
3:50 pm57 °FSunny.12 mph82%30.15 "Hg10 mi
3:20 pm57 °FSunny.12 mph82%30.15 "Hg10 mi
2:50 pm57 °FSunny.15 mph82%30.15 "Hg10 mi
2:20 pm57 °FPassing clouds.14 mph88%30.18 "HgN/A
1:50 pm57 °FSunny.14 mph88%30.18 "Hg10 mi
1:20 pm57 °FPassing clouds.13 mph88%30.18 "HgN/A
12:50 pm57 °FPassing clouds.16 mph88%30.18 "HgN/A
12:20 pm57 °FPassing clouds.15 mph88%30.18 "HgN/A
Weather by CustomWeather, © 2016

See weather overviewHow to use our weather pages